owner,sensor,date,latitude,longitude,vertical_datum,sea_water_practical_salinity,qcFlag 
SCCF RECON,ioos:station:SCCF:13:1,2017-12-01T05:00:00Z,26.5255,-82.0032,2.68,28.22,1111122 
SCCF RECON,ioos:station:SCCF:13:1,2017-12-01T06:00:00Z,26.5255,-82.0032,2.55,28.42,1111122 
SCCF RECON,ioos:station:SCCF:13:1,2017-12-01T07:00:00Z,26.5255,-82.0032,2.403,22.6,1111122 
SCCF RECON,ioos:station:SCCF:13:1,2017-12-01T08:00:00Z,26.5255,-82.0032,2.3,10.99,1111122 
SCCF RECON,ioos:station:SCCF:13:1,2017-12-01T09:00:00Z,26.5255,-82.0032,2.211,9.92,1111122 
SCCF RECON,ioos:station:SCCF:13:1,2017-12-01T10:00:00Z,26.5255,-82.0032,2.13,7.92,1111122 
SCCF RECON,ioos:station:SCCF:13:1,2017-12-01T11:00:00Z,26.5255,-82.0032,2.083,7.5,1111122 
SCCF RECON,ioos:station:SCCF:13:1,2017-12-01T12:00:00Z,26.5255,-82.0032,2.151,6.74,1111122 
SCCF RECON,ioos:station:SCCF:13:1,2017-12-01T13:00:00Z,26.5255,-82.0032,2.311,6.02,1111122 
SCCF RECON,ioos:station:SCCF:13:1,2017-12-01T14:00:00Z,26.5255,-82.0032,2.41,6.42,1111122 
SCCF RECON,ioos:station:SCCF:13:1,2017-12-01T15:00:00Z,26.5255,-82.0032,2.49,11.0,1111122 
SCCF RECON,ioos:station:SCCF:13:1,2017-12-01T16:00:00Z,26.5255,-82.0032,2.557,15.85,1111122 
SCCF RECON,ioos:station:SCCF:13:1,2017-12-01T17:00:00Z,26.5255,-82.0032,2.579,22.15,1111122 
SCCF RECON,ioos:station:SCCF:13:1,2017-12-01T18:00:00Z,26.5255,-82.0032,2.532,23.57,1111122 
SCCF RECON,ioos:station:SCCF:13:1,2017-12-01T19:00:00Z,26.5255,-82.0032,2.46,24.5,1111122 
SCCF RECON,ioos:station:SCCF:13:1,2017-12-01T20:00:00Z,26.5255,-82.0032,2.39,23.8,1111122 
SCCF RECON,ioos:station:SCCF:13:1,2017-12-01T21:00:00Z,26.5255,-82.0032,2.331,17.59,1111122 
SCCF RECON,ioos:station:SCCF:13:1,2017-12-01T22:00:00Z,26.5255,-82.0032,2.3,9.18,1111122 
SCCF RECON,ioos:station:SCCF:13:1,2017-12-02T05:00:00Z,26.5255,-82.0032,2.8,28.25,1111122 
SCCF RECON,ioos:station:SCCF:13:1,2017-12-02T06:00:00Z,26.5255,-82.0032,2.7,27.95,1111122 
SCCF RECON,ioos:station:SCCF:13:1,2017-12-02T07:00:00Z,26.5255,-82.0032,2.54,28.06,1111122 
SCCF RECON,ioos:station:SCCF:13:1,2017-12-02T08:00:00Z,26.5255,-82.0032,2.398,18.75,1111122 
SCCF RECON,ioos:station:SCCF:13:1,2017-12-02T09:00:00Z,26.5255,-82.0032,2.3,12.48,1111122 
SCCF RECON,ioos:station:SCCF:13:1,2017-12-02T10:00:00Z,26.5255,-82.0032,2.199,10.54,1111122 
SCCF RECON,ioos:station:SCCF:13:1,2017-12-02T11:00:00Z,26.5255,-82.0032,2.12,9.65,1111122 
SCCF RECON,ioos:station:SCCF:13:1,2017-12-02T12:00:00Z,26.5255,-82.0032,2.095,8.84,1111122 
SCCF RECON,ioos:station:SCCF:13:1,2017-12-02T13:00:00Z,26.5255,-82.0032,2.207,7.95,1111122 
SCCF RECON,ioos:station:SCCF:13:1,2017-12-02T14:00:00Z,26.5255,-82.0032,2.37,7.12,1111122 
SCCF RECON,ioos:station:SCCF:13:1,2017-12-02T15:00:00Z,26.5255,-82.0032,2.465,9.42,1111122 
SCCF RECON,ioos:station:SCCF:13:1,2017-12-02T16:00:00Z,26.5255,-82.0032,2.54,13.3,1111122 
SCCF RECON,ioos:station:SCCF:13:1,2017-12-02T17:00:00Z,26.5255,-82.0032,2.612,20.1,1111122 
SCCF RECON,ioos:station:SCCF:13:1,2017-12-02T18:00:00Z,26.5255,-82.0032,2.62,22.92,1111122 
SCCF RECON,ioos:station:SCCF:13:1,2017-12-02T19:00:00Z,26.5255,-82.0032,2.569,23.82,1111122 
SCCF RECON,ioos:station:SCCF:13:1,2017-12-02T20:00:00Z,26.5255,-82.0032,2.494,24.41,1111122 
SCCF RECON,ioos:station:SCCF:13:1,2017-12-02T21:00:00Z,26.5255,-82.0032,2.422,23.43,1111122 
SCCF RECON,ioos:station:SCCF:13:1,2017-12-02T22:00:00Z,26.5255,-82.0032,2.374,18.6,1111122 
SCCF RECON,ioos:station:SCCF:13:1,2017-12-03T05:00:00Z,26.5255,-82.0032,2.86,27.56,1111122 
SCCF RECON,ioos:station:SCCF:13:1,2017-12-03T06:00:00Z,26.5255,-82.0032,2.829,28.14,1111122 
SCCF RECON,ioos:station:SCCF:13:1,2017-12-03T07:00:00Z,26.5255,-82.0032,2.69,28.6,1111122 
SCCF RECON,ioos:station:SCCF:13:1,2017-12-03T08:00:00Z,26.5255,-82.0032,2.521,24.76,1111122 
SCCF RECON,ioos:station:SCCF:13:1,2017-12-03T09:00:00Z,26.5255,-82.0032,2.409,17.07,1111122 
SCCF RECON,ioos:station:SCCF:13:1,2017-12-03T10:00:00Z,26.5255,-82.0032,2.309,13.85,1111122 
SCCF RECON,ioos:station:SCCF:13:1,2017-12-03T11:00:00Z,26.5255,-82.0032,2.206,11.57,1111122 
SCCF RECON,ioos:station:SCCF:13:1,2017-12-03T12:00:00Z,26.5255,-82.0032,2.129,11.56,1111122 
SCCF RECON,ioos:station:SCCF:13:1,2017-12-03T13:00:00Z,26.5255,-82.0032,2.102,10.08,1111122 
SCCF RECON,ioos:station:SCCF:13:1,2017-12-03T14:00:00Z,26.5255,-82.0032,2.25,8.8,1111122 
SCCF RECON,ioos:station:SCCF:13:1,2017-12-03T15:00:00Z,26.5255,-82.0032,2.405,7.81,1111122 
SCCF RECON,ioos:station:SCCF:13:1,2017-12-03T16:00:00Z,26.5255,-82.0032,2.492,9.97,1111122 
SCCF RECON,ioos:station:SCCF:13:1,2017-12-03T17:00:00Z,26.5255,-82.0032,2.57,15.09,1111122 
SCCF RECON,ioos:station:SCCF:13:1,2017-12-03T18:00:00Z,26.5255,-82.0032,2.632,21.41,1111122 
SCCF RECON,ioos:station:SCCF:13:1,2017-12-03T19:00:00Z,26.5255,-82.0032,2.651,24.09,1111122 
SCCF RECON,ioos:station:SCCF:13:1,2017-12-03T20:00:00Z,26.5255,-82.0032,2.602,24.25,1111122 
SCCF RECON,ioos:station:SCCF:13:1,2017-12-03T21:00:00Z,26.5255,-82.0032,2.53,24.59,1111122 
SCCF RECON,ioos:station:SCCF:13:1,2017-12-03T22:00:00Z,26.5255,-82.0032,2.476,22.42,1111122 
SCCF RECON,ioos:station:SCCF:13:1,2017-12-04T05:00:00Z,26.5255,-82.0032,2.84,27.01,1111122 
SCCF RECON,ioos:station:SCCF:13:1,2017-12-04T06:00:00Z,26.5255,-82.0032,2.85,28.24,1111122 
SCCF RECON,ioos:station:SCCF:13:1,2017-12-04T07:00:00Z,26.5255,-82.0032,2.776,29.43,1111122 
SCCF RECON,ioos:station:SCCF:13:1,2017-12-04T08:00:00Z,26.5255,-82.0032,2.63,28.06,1111122 
SCCF RECON,ioos:station:SCCF:13:1,2017-12-04T09:00:00Z,26.5255,-82.0032,2.48,21.63,1111122 
SCCF RECON,ioos:station:SCCF:13:1,2017-12-04T10:00:00Z,26.5255,-82.0032,2.371,15.8,1111122 
SCCF RECON,ioos:station:SCCF:13:1,2017-12-04T11:00:00Z,26.5255,-82.0032,2.262,13.05,1111122 
SCCF RECON,ioos:station:SCCF:13:1,2017-12-04T12:00:00Z,26.5255,-82.0032,2.168,11.52,1111122 
SCCF RECON,ioos:station:SCCF:13:1,2017-12-04T13:00:00Z,26.5255,-82.0032,2.089,10.38,1111122 
SCCF RECON,ioos:station:SCCF:13:1,2017-12-04T14:00:00Z,26.5255,-82.0032,2.071,9.16,1111122 
SCCF RECON,ioos:station:SCCF:13:1,2017-12-04T15:00:00Z,26.5255,-82.0032,2.23,8.32,1111122 
SCCF RECON,ioos:station:SCCF:13:1,2017-12-04T16:00:00Z,26.5255,-82.0032,2.377,7.63,1111122 
SCCF RECON,ioos:station:SCCF:13:1,2017-12-04T17:00:00Z,26.5255,-82.0032,2.445,9.92,1111122 
SCCF RECON,ioos:station:SCCF:13:1,2017-12-04T18:00:00Z,26.5255,-82.0032,2.518,13.43,1111122 
SCCF RECON,ioos:station:SCCF:13:1,2017-12-04T19:00:00Z,26.5255,-82.0032,2.579,20.02,1111122 
SCCF RECON,ioos:station:SCCF:13:1,2017-12-04T20:00:00Z,26.5255,-82.0032,2.591,22.32,1111122 
SCCF RECON,ioos:station:SCCF:13:1,2017-12-04T21:00:00Z,26.5255,-82.0032,2.56,22.82,1111122 
SCCF RECON,ioos:station:SCCF:13:1,2017-12-04T22:00:00Z,26.5255,-82.0032,2.52,23.81,1111122 
SCCF RECON,ioos:station:SCCF:13:1,2017-12-05T05:00:00Z,26.5255,-82.0032,2.85,27.46,1111122 
SCCF RECON,ioos:station:SCCF:13:1,2017-12-05T06:00:00Z,26.5255,-82.0032,2.88,29.24,1111122 
SCCF RECON,ioos:station:SCCF:13:1,2017-12-05T07:00:00Z,26.5255,-82.0032,2.87,29.41,1111122 
SCCF RECON,ioos:station:SCCF:13:1,2017-12-05T08:00:00Z,26.5255,-82.0032,2.784,29.06,1111122 
SCCF RECON,ioos:station:SCCF:13:1,2017-12-05T09:00:00Z,26.5255,-82.0032,2.631,29.19,1111122 
SCCF RECON,ioos:station:SCCF:13:1,2017-12-05T10:00:00Z,26.5255,-82.0032,2.49,21.16,1111122 
SCCF RECON,ioos:station:SCCF:13:1,2017-12-05T11:00:00Z,26.5255,-82.0032,2.4,16.42,1111122 
SCCF RECON,ioos:station:SCCF:13:1,2017-12-05T12:00:00Z,26.5255,-82.0032,2.288,12.97,1111122 
SCCF RECON,ioos:station:SCCF:13:1,2017-12-05T13:00:00Z,26.5255,-82.0032,2.19,12.68,1111122 
SCCF RECON,ioos:station:SCCF:13:1,2017-12-05T14:00:00Z,26.5255,-82.0032,2.12,11.2,1111122 
SCCF RECON,ioos:station:SCCF:13:1,2017-12-05T15:00:00Z,26.5255,-82.0032,2.142,10.28,1111122 
SCCF RECON,ioos:station:SCCF:13:1,2017-12-05T16:00:00Z,26.5255,-82.0032,2.31,9.36,1111122 
SCCF RECON,ioos:station:SCCF:13:1,2017-12-05T17:00:00Z,26.5255,-82.0032,2.43,8.78,1111122 
SCCF RECON,ioos:station:SCCF:13:1,2017-12-05T18:00:00Z,26.5255,-82.0032,2.48,11.56,1111122 
SCCF RECON,ioos:station:SCCF:13:1,2017-12-05T19:00:00Z,26.5255,-82.0032,2.535,16.42,1111122 
SCCF RECON,ioos:station:SCCF:13:1,2017-12-05T20:00:00Z,26.5255,-82.0032,2.58,21.16,1111122 
SCCF RECON,ioos:station:SCCF:13:1,2017-12-05T21:00:00Z,26.5255,-82.0032,2.59,23.55,1111122 
SCCF RECON,ioos:station:SCCF:13:1,2017-12-05T22:00:00Z,26.5255,-82.0032,2.559,24.72,1111122 
SCCF RECON,ioos:station:SCCF:13:1,2017-12-06T05:00:00Z,26.5255,-82.0032,2.79,23.91,1111122 
SCCF RECON,ioos:station:SCCF:13:1,2017-12-06T06:00:00Z,26.5255,-82.0032,2.83,27.42,1111122 
SCCF RECON,ioos:station:SCCF:13:1,2017-12-06T07:00:00Z,26.5255,-82.0032,2.85,28.71,1111122 
SCCF RECON,ioos:station:SCCF:13:1,2017-12-06T08:00:00Z,26.5255,-82.0032,2.82,29.44,1111122 
SCCF RECON,ioos:station:SCCF:13:1,2017-12-06T09:00:00Z,26.5255,-82.0032,2.722,30.17,1111122 
SCCF RECON,ioos:station:SCCF:13:1,2017-12-06T10:00:00Z,26.5255,-82.0032,2.57,28.52,1111122 
SCCF RECON,ioos:station:SCCF:13:1,2017-12-06T11:00:00Z,26.5255,-82.0032,2.45,18.84,1111122 
SCCF RECON,ioos:station:SCCF:13:1,2017-12-06T12:00:00Z,26.5255,-82.0032,2.348,14.91,1111122 
SCCF RECON,ioos:station:SCCF:13:1,2017-12-06T13:00:00Z,26.5255,-82.0032,2.243,12.77,1111122 
SCCF RECON,ioos:station:SCCF:13:1,2017-12-06T14:00:00Z,26.5255,-82.0032,2.157,12.49,1111122 
SCCF RECON,ioos:station:SCCF:13:1,2017-12-06T15:00:00Z,26.5255,-82.0032,2.1,11.83,1111122 
SCCF RECON,ioos:station:SCCF:13:1,2017-12-06T16:00:00Z,26.5255,-82.0032,2.15,10.65,1111122 
SCCF RECON,ioos:station:SCCF:13:1,2017-12-06T17:00:00Z,26.5255,-82.0032,2.326,9.24,1111122 
SCCF RECON,ioos:station:SCCF:13:1,2017-12-06T18:00:00Z,26.5255,-82.0032,2.402,9.67,1111122 
SCCF RECON,ioos:station:SCCF:13:1,2017-12-06T19:00:00Z,26.5255,-82.0032,2.459,12.24,1111122 
SCCF RECON,ioos:station:SCCF:13:1,2017-12-06T20:00:00Z,26.5255,-82.0032,2.516,17.71,1111122 
SCCF RECON,ioos:station:SCCF:13:1,2017-12-06T21:00:00Z,26.5255,-82.0032,2.571,21.93,1111122 
SCCF RECON,ioos:station:SCCF:13:1,2017-12-06T22:00:00Z,26.5255,-82.0032,2.58,23.89,1111122 
SCCF RECON,ioos:station:SCCF:13:1,2017-12-07T05:00:00Z,26.5255,-82.0032,2.653,20.78,1111122 
SCCF RECON,ioos:station:SCCF:13:1,2017-12-07T06:00:00Z,26.5255,-82.0032,2.71,23.94,1111122 
SCCF RECON,ioos:station:SCCF:13:1,2017-12-07T07:00:00Z,26.5255,-82.0032,2.72,26.12,1111122 
SCCF RECON,ioos:station:SCCF:13:1,2017-12-07T08:00:00Z,26.5255,-82.0032,2.74,27.75,1111122 
SCCF RECON,ioos:station:SCCF:13:1,2017-12-07T09:00:00Z,26.5255,-82.0032,2.74,29.01,1111122 
SCCF RECON,ioos:station:SCCF:13:1,2017-12-07T10:00:00Z,26.5255,-82.0032,2.67,29.67,1111122 
SCCF RECON,ioos:station:SCCF:13:1,2017-12-07T11:00:00Z,26.5255,-82.0032,2.52,28.42,1111122 
SCCF RECON,ioos:station:SCCF:13:1,2017-12-07T12:00:00Z,26.5255,-82.0032,2.38,17.62,1111122 
SCCF RECON,ioos:station:SCCF:13:1,2017-12-07T13:00:00Z,26.5255,-82.0032,2.289,14.94,1111122 
SCCF RECON,ioos:station:SCCF:13:1,2017-12-07T14:00:00Z,26.5255,-82.0032,2.196,12.51,1111122 
SCCF RECON,ioos:station:SCCF:13:1,2017-12-07T15:00:00Z,26.5255,-82.0032,2.118,12.14,1111122 
SCCF RECON,ioos:station:SCCF:13:1,2017-12-07T16:00:00Z,26.5255,-82.0032,2.063,11.26,1111122 
SCCF RECON,ioos:station:SCCF:13:1,2017-12-07T17:00:00Z,26.5255,-82.0032,2.13,10.24,1111122 
SCCF RECON,ioos:station:SCCF:13:1,2017-12-07T18:00:00Z,26.5255,-82.0032,2.284,9.32,1111122 
SCCF RECON,ioos:station:SCCF:13:1,2017-12-07T19:00:00Z,26.5255,-82.0032,2.363,9.81,1111122 
SCCF RECON,ioos:station:SCCF:13:1,2017-12-07T20:00:00Z,26.5255,-82.0032,2.42,12.24,1111122 
SCCF RECON,ioos:station:SCCF:13:1,2017-12-07T22:00:00Z,26.5255,-82.0032,2.537,22.53,1111122 
SCCF RECON,ioos:station:SCCF:13:1,2017-12-08T05:00:00Z,26.5255,-82.0032,2.55,24.54,1111122 
SCCF RECON,ioos:station:SCCF:13:1,2017-12-08T06:00:00Z,26.5255,-82.0032,2.62,25.16,1111122 
SCCF RECON,ioos:station:SCCF:13:1,2017-12-08T07:00:00Z,26.5255,-82.0032,2.67,23.29,1111122 
SCCF RECON,ioos:station:SCCF:13:1,2017-12-08T08:00:00Z,26.5255,-82.0032,2.71,26.55,1111122 
SCCF RECON,ioos:station:SCCF:13:1,2017-12-08T09:00:00Z,26.5255,-82.0032,2.74,27.64,1111122 
SCCF RECON,ioos:station:SCCF:13:1,2017-12-08T10:00:00Z,26.5255,-82.0032,2.74,28.57,1111122 
SCCF RECON,ioos:station:SCCF:13:1,2017-12-08T11:00:00Z,26.5255,-82.0032,2.68,29.07,1111122 
SCCF RECON,ioos:station:SCCF:13:1,2017-12-08T12:00:00Z,26.5255,-82.0032,2.54,28.35,1111122 
SCCF RECON,ioos:station:SCCF:13:1,2017-12-08T13:00:00Z,26.5255,-82.0032,2.411,20.82,1111122 
SCCF RECON,ioos:station:SCCF:13:1,2017-12-08T14:00:00Z,26.5255,-82.0032,2.332,17.01,1111122 
SCCF RECON,ioos:station:SCCF:13:1,2017-12-08T15:00:00Z,26.5255,-82.0032,2.24,14.57,1111122 
SCCF RECON,ioos:station:SCCF:13:1,2017-12-08T16:00:00Z,26.5255,-82.0032,2.159,13.85,1111122 
SCCF RECON,ioos:station:SCCF:13:1,2017-12-08T17:00:00Z,26.5255,-82.0032,2.139,13.43,1111122 
SCCF RECON,ioos:station:SCCF:13:1,2017-12-08T18:00:00Z,26.5255,-82.0032,2.23,12.64,1111122 
SCCF RECON,ioos:station:SCCF:13:1,2017-12-08T19:00:00Z,26.5255,-82.0032,2.335,12.25,1111122 
SCCF RECON,ioos:station:SCCF:13:1,2017-12-08T20:00:00Z,26.5255,-82.0032,2.397,13.5,1111122 
SCCF RECON,ioos:station:SCCF:13:1,2017-12-08T21:00:00Z,26.5255,-82.0032,2.47,15.6,1111122 
SCCF RECON,ioos:station:SCCF:13:1,2017-12-08T22:00:00Z,26.5255,-82.0032,2.54,21.94,1111122 
SCCF RECON,ioos:station:SCCF:13:1,2017-12-09T05:00:00Z,26.5255,-82.0032,2.526,26.39,1111122 
SCCF RECON,ioos:station:SCCF:13:1,2017-12-09T06:00:00Z,26.5255,-82.0032,2.62,25.67,1111122 
SCCF RECON,ioos:station:SCCF:13:1,2017-12-09T07:00:00Z,26.5255,-82.0032,2.69,25.48,1111122 
SCCF RECON,ioos:station:SCCF:13:1,2017-12-09T08:00:00Z,26.5255,-82.0032,2.72,27.04,1111122 
SCCF RECON,ioos:station:SCCF:13:1,2017-12-09T09:00:00Z,26.5255,-82.0032,2.762,28.06,1111122 
SCCF RECON,ioos:station:SCCF:13:1,2017-12-09T10:00:00Z,26.5255,-82.0032,2.794,29.28,1111122 
SCCF RECON,ioos:station:SCCF:13:1,2017-12-09T11:00:00Z,26.5255,-82.0032,2.77,29.85,1111122 
SCCF RECON,ioos:station:SCCF:13:1,2017-12-09T12:00:00Z,26.5255,-82.0032,2.739,29.67,1111122 
SCCF RECON,ioos:station:SCCF:13:1,2017-12-09T13:00:00Z,26.5255,-82.0032,2.64,26.73,1111122 
SCCF RECON,ioos:station:SCCF:13:1,2017-12-09T14:00:00Z,26.5255,-82.0032,2.54,23.98,1111122 
SCCF RECON,ioos:station:SCCF:13:1,2017-12-09T15:00:00Z,26.5255,-82.0032,2.43,19.89,1111122 
SCCF RECON,ioos:station:SCCF:13:1,2017-12-09T16:00:00Z,26.5255,-82.0032,2.32,16.68,1111122 
SCCF RECON,ioos:station:SCCF:13:1,2017-12-09T17:00:00Z,26.5255,-82.0032,2.215,14.01,1111122 
SCCF RECON,ioos:station:SCCF:13:1,2017-12-09T18:00:00Z,26.5255,-82.0032,2.169,12.1,1111122 
SCCF RECON,ioos:station:SCCF:13:1,2017-12-09T19:00:00Z,26.5255,-82.0032,2.212,10.98,1111122 
SCCF RECON,ioos:station:SCCF:13:1,2017-12-09T20:00:00Z,26.5255,-82.0032,2.306,10.16,1111122 
SCCF RECON,ioos:station:SCCF:13:1,2017-12-09T21:00:00Z,26.5255,-82.0032,2.301,9.3,1111122 
SCCF RECON,ioos:station:SCCF:13:1,2017-12-09T22:00:00Z,26.5255,-82.0032,2.3,8.61,1111122 
SCCF RECON,ioos:station:SCCF:13:1,2017-12-10T05:00:00Z,26.5255,-82.0032,2.14,5.93,1111122 
SCCF RECON,ioos:station:SCCF:13:1,2017-12-10T06:00:00Z,26.5255,-82.0032,2.09,5.18,1111122 
SCCF RECON,ioos:station:SCCF:13:1,2017-12-10T07:00:00Z,26.5255,-82.0032,2.086,4.86,1111122 
SCCF RECON,ioos:station:SCCF:13:1,2017-12-10T08:00:00Z,26.5255,-82.0032,2.14,4.52,1111122 
SCCF RECON,ioos:station:SCCF:13:1,2017-12-10T09:00:00Z,26.5255,-82.0032,2.2,4.03,1111122 
SCCF RECON,ioos:station:SCCF:13:1,2017-12-10T10:00:00Z,26.5255,-82.0032,2.22,4.2,1111122 
SCCF RECON,ioos:station:SCCF:13:1,2017-12-10T11:00:00Z,26.5255,-82.0032,2.222,6.56,1111122 
SCCF RECON,ioos:station:SCCF:13:1,2017-12-10T12:00:00Z,26.5255,-82.0032,2.24,11.7,1111122 
SCCF RECON,ioos:station:SCCF:13:1,2017-12-10T13:00:00Z,26.5255,-82.0032,2.25,16.18,1111122 
SCCF RECON,ioos:station:SCCF:13:1,2017-12-10T14:00:00Z,26.5255,-82.0032,2.22,18.0,1111122 
SCCF RECON,ioos:station:SCCF:13:1,2017-12-10T15:00:00Z,26.5255,-82.0032,2.14,12.06,1111122 
SCCF RECON,ioos:station:SCCF:13:1,2017-12-10T16:00:00Z,26.5255,-82.0032,2.072,4.54,1111122 
SCCF RECON,ioos:station:SCCF:13:1,2017-12-10T17:00:00Z,26.5255,-82.0032,2.03,3.7,1111122 
SCCF RECON,ioos:station:SCCF:13:1,2017-12-10T18:00:00Z,26.5255,-82.0032,1.992,3.3,1111122 
SCCF RECON,ioos:station:SCCF:13:1,2017-12-10T19:00:00Z,26.5255,-82.0032,1.99,3.12,1111122 
SCCF RECON,ioos:station:SCCF:13:1,2017-12-10T20:00:00Z,26.5255,-82.0032,2.06,3.08,1111122 
SCCF RECON,ioos:station:SCCF:13:1,2017-12-10T21:00:00Z,26.5255,-82.0032,2.176,6.07,1111122 
SCCF RECON,ioos:station:SCCF:13:1,2017-12-10T22:00:00Z,26.5255,-82.0032,2.27,11.56,1111122 
SCCF RECON,ioos:station:SCCF:13:1,2017-12-11T05:00:00Z,26.5255,-82.0032,2.31,24.61,1111122 
SCCF RECON,ioos:station:SCCF:13:1,2017-12-11T06:00:00Z,26.5255,-82.0032,2.239,19.06,1111122 
SCCF RECON,ioos:station:SCCF:13:1,2017-12-11T07:00:00Z,26.5255,-82.0032,2.179,13.26,1111122 
SCCF RECON,ioos:station:SCCF:13:1,2017-12-11T08:00:00Z,26.5255,-82.0032,2.17,9.9,1111122 
SCCF RECON,ioos:station:SCCF:13:1,2017-12-11T09:00:00Z,26.5255,-82.0032,2.21,8.96,1111122 
SCCF RECON,ioos:station:SCCF:13:1,2017-12-11T10:00:00Z,26.5255,-82.0032,2.26,8.99,1111122 
SCCF RECON,ioos:station:SCCF:13:1,2017-12-11T11:00:00Z,26.5255,-82.0032,2.32,19.1,1111122 
SCCF RECON,ioos:station:SCCF:13:1,2017-12-11T12:00:00Z,26.5255,-82.0032,2.36,19.56,1111122 
SCCF RECON,ioos:station:SCCF:13:1,2017-12-11T13:00:00Z,26.5255,-82.0032,2.39,21.58,1111122 
SCCF RECON,ioos:station:SCCF:13:1,2017-12-11T14:00:00Z,26.5255,-82.0032,2.38,22.42,1111122 
SCCF RECON,ioos:station:SCCF:13:1,2017-12-11T15:00:00Z,26.5255,-82.0032,2.32,23.29,1111122 
SCCF RECON,ioos:station:SCCF:13:1,2017-12-11T16:00:00Z,26.5255,-82.0032,2.25,22.81,1111122 
SCCF RECON,ioos:station:SCCF:13:1,2017-12-11T17:00:00Z,26.5255,-82.0032,2.18,16.93,1111122 
SCCF RECON,ioos:station:SCCF:13:1,2017-12-11T18:00:00Z,26.5255,-82.0032,2.12,8.81,1111122 
SCCF RECON,ioos:station:SCCF:13:1,2017-12-11T19:00:00Z,26.5255,-82.0032,2.076,6.99,1111122 
SCCF RECON,ioos:station:SCCF:13:1,2017-12-11T20:00:00Z,26.5255,-82.0032,2.09,6.39,1111122 
SCCF RECON,ioos:station:SCCF:13:1,2017-12-11T21:00:00Z,26.5255,-82.0032,2.17,6.1,1111122 
SCCF RECON,ioos:station:SCCF:13:1,2017-12-11T22:00:00Z,26.5255,-82.0032,2.28,16.82,1111122 
SCCF RECON,ioos:station:SCCF:13:1,2017-12-12T05:00:00Z,26.5255,-82.0032,2.41,27.3,1111122 
SCCF RECON,ioos:station:SCCF:13:1,2017-12-12T06:00:00Z,26.5255,-82.0032,2.33,26.75,1111122 
SCCF RECON,ioos:station:SCCF:13:1,2017-12-12T07:00:00Z,26.5255,-82.0032,2.26,19.92,1111122 
SCCF RECON,ioos:station:SCCF:13:1,2017-12-12T08:00:00Z,26.5255,-82.0032,2.217,15.38,1111122 
SCCF RECON,ioos:station:SCCF:13:1,2017-12-12T09:00:00Z,26.5255,-82.0032,2.22,12.23,1111122 
SCCF RECON,ioos:station:SCCF:13:1,2017-12-12T10:00:00Z,26.5255,-82.0032,2.31,12.33,1111122 
SCCF RECON,ioos:station:SCCF:13:1,2017-12-12T11:00:00Z,26.5255,-82.0032,2.4,19.52,1111122 
SCCF RECON,ioos:station:SCCF:13:1,2017-12-12T12:00:00Z,26.5255,-82.0032,2.46,19.41,1111122 
SCCF RECON,ioos:station:SCCF:13:1,2017-12-12T13:00:00Z,26.5255,-82.0032,2.51,23.93,1111122 
SCCF RECON,ioos:station:SCCF:13:1,2017-12-12T14:00:00Z,26.5255,-82.0032,2.57,25.68,1111122 
SCCF RECON,ioos:station:SCCF:13:1,2017-12-12T15:00:00Z,26.5255,-82.0032,2.591,27.59,1111122 
SCCF RECON,ioos:station:SCCF:13:1,2017-12-12T16:00:00Z,26.5255,-82.0032,2.6,27.92,1111122 
SCCF RECON,ioos:station:SCCF:13:1,2017-12-12T17:00:00Z,26.5255,-82.0032,2.535,28.33,1111122 
SCCF RECON,ioos:station:SCCF:13:1,2017-12-12T18:00:00Z,26.5255,-82.0032,2.442,28.49,1111122 
SCCF RECON,ioos:station:SCCF:13:1,2017-12-12T20:00:00Z,26.5255,-82.0032,2.39,26.33,1111122 
SCCF RECON,ioos:station:SCCF:13:1,2017-12-12T21:00:00Z,26.5255,-82.0032,2.407,25.18,1111122 
SCCF RECON,ioos:station:SCCF:13:1,2017-12-12T22:00:00Z,26.5255,-82.0032,2.45,23.53,1111122 
SCCF RECON,ioos:station:SCCF:13:1,2017-12-13T09:00:00Z,26.5255,-82.0032,2.159,13.7,1111122 
SCCF RECON,ioos:station:SCCF:13:1,2017-12-13T10:00:00Z,26.5255,-82.0032,2.111,12.31,1111122 
SCCF RECON,ioos:station:SCCF:13:1,2017-12-13T11:00:00Z,26.5255,-82.0032,2.129,10.82,1111122 
SCCF RECON,ioos:station:SCCF:13:1,2017-12-13T12:00:00Z,26.5255,-82.0032,2.2,10.18,1111122 
SCCF RECON,ioos:station:SCCF:13:1,2017-12-13T13:00:00Z,26.5255,-82.0032,2.27,9.61,1111122 
SCCF RECON,ioos:station:SCCF:13:1,2017-12-13T14:00:00Z,26.5255,-82.0032,2.33,9.85,1111122 
SCCF RECON,ioos:station:SCCF:13:1,2017-12-13T17:00:00Z,26.5255,-82.0032,2.39,20.14,1111122 
SCCF RECON,ioos:station:SCCF:13:1,2017-12-13T18:00:00Z,26.5255,-82.0032,2.346,21.4,1111122 
SCCF RECON,ioos:station:SCCF:13:1,2017-12-13T19:00:00Z,26.5255,-82.0032,2.28,21.77,1111122 
SCCF RECON,ioos:station:SCCF:13:1,2017-12-13T20:00:00Z,26.5255,-82.0032,2.28,20.96,1111122 
SCCF RECON,ioos:station:SCCF:13:1,2017-12-13T21:00:00Z,26.5255,-82.0032,2.305,21.92,1111122 
SCCF RECON,ioos:station:SCCF:13:1,2017-12-13T22:00:00Z,26.5255,-82.0032,2.35,24.6,1111122 
SCCF RECON,ioos:station:SCCF:13:1,2017-12-14T11:00:00Z,26.5255,-82.0032,2.187,12.42,1111122 
SCCF RECON,ioos:station:SCCF:13:1,2017-12-14T12:00:00Z,26.5255,-82.0032,2.28,11.36,1111122 
SCCF RECON,ioos:station:SCCF:13:1,2017-12-14T13:00:00Z,26.5255,-82.0032,2.387,11.3,1111122 
SCCF RECON,ioos:station:SCCF:13:1,2017-12-14T14:00:00Z,26.5255,-82.0032,2.43,15.13,1111122 
SCCF RECON,ioos:station:SCCF:13:1,2017-12-14T15:00:00Z,26.5255,-82.0032,2.485,17.6,1111122 
SCCF RECON,ioos:station:SCCF:13:1,2017-12-14T16:00:00Z,26.5255,-82.0032,2.533,20.68,1111122 
SCCF RECON,ioos:station:SCCF:13:1,2017-12-14T17:00:00Z,26.5255,-82.0032,2.555,23.86,1111122 
SCCF RECON,ioos:station:SCCF:13:1,2017-12-14T18:00:00Z,26.5255,-82.0032,2.541,25.41,1111122 
SCCF RECON,ioos:station:SCCF:13:1,2017-12-14T19:00:00Z,26.5255,-82.0032,2.5,25.63,1111122 
SCCF RECON,ioos:station:SCCF:13:1,2017-12-14T20:00:00Z,26.5255,-82.0032,2.458,26.56,1111122 
SCCF RECON,ioos:station:SCCF:13:1,2017-12-14T21:00:00Z,26.5255,-82.0032,2.43,23.65,1111122 
SCCF RECON,ioos:station:SCCF:13:1,2017-12-14T22:00:00Z,26.5255,-82.0032,2.41,24.14,1111122 
SCCF RECON,ioos:station:SCCF:13:1,2017-12-15T05:00:00Z,26.5255,-82.0032,2.76,29.15,1111122 
SCCF RECON,ioos:station:SCCF:13:1,2017-12-15T06:00:00Z,26.5255,-82.0032,2.68,29.68,1111122 
SCCF RECON,ioos:station:SCCF:13:1,2017-12-15T07:00:00Z,26.5255,-82.0032,2.54,28.1,1111122 
SCCF RECON,ioos:station:SCCF:13:1,2017-12-15T08:00:00Z,26.5255,-82.0032,2.43,22.21,1111122 
SCCF RECON,ioos:station:SCCF:13:1,2017-12-15T09:00:00Z,26.5255,-82.0032,2.341,18.86,1111122 
SCCF RECON,ioos:station:SCCF:13:1,2017-12-15T10:00:00Z,26.5255,-82.0032,2.256,17.03,1111122 
SCCF RECON,ioos:station:SCCF:13:1,2017-12-15T11:00:00Z,26.5255,-82.0032,2.193,16.11,1111122 
SCCF RECON,ioos:station:SCCF:13:1,2017-12-15T12:00:00Z,26.5255,-82.0032,2.21,15.46,1111122 
SCCF RECON,ioos:station:SCCF:13:1,2017-12-15T13:00:00Z,26.5255,-82.0032,2.331,14.23,1111122 
SCCF RECON,ioos:station:SCCF:13:1,2017-12-15T14:00:00Z,26.5255,-82.0032,2.43,13.93,1111122 
SCCF RECON,ioos:station:SCCF:13:1,2017-12-15T15:00:00Z,26.5255,-82.0032,2.48,15.89,1111122 
SCCF RECON,ioos:station:SCCF:13:1,2017-12-15T16:00:00Z,26.5255,-82.0032,2.54,18.78,1111122 
SCCF RECON,ioos:station:SCCF:13:1,2017-12-15T17:00:00Z,26.5255,-82.0032,2.59,22.13,1111122 
SCCF RECON,ioos:station:SCCF:13:1,2017-12-15T18:00:00Z,26.5255,-82.0032,2.573,25.44,1111122 
SCCF RECON,ioos:station:SCCF:13:1,2017-12-15T19:00:00Z,26.5255,-82.0032,2.53,27.03,1111122 
SCCF RECON,ioos:station:SCCF:13:1,2017-12-15T20:00:00Z,26.5255,-82.0032,2.49,27.92,1111122 
SCCF RECON,ioos:station:SCCF:13:1,2017-12-15T21:00:00Z,26.5255,-82.0032,2.45,26.92,1111122 
SCCF RECON,ioos:station:SCCF:13:1,2017-12-15T22:00:00Z,26.5255,-82.0032,2.429,23.49,1111122 
SCCF RECON,ioos:station:SCCF:13:1,2017-12-16T05:00:00Z,26.5255,-82.0032,2.71,28.72,1111122 
SCCF RECON,ioos:station:SCCF:13:1,2017-12-16T06:00:00Z,26.5255,-82.0032,2.62,29.29,1111122 
SCCF RECON,ioos:station:SCCF:13:1,2017-12-16T07:00:00Z,26.5255,-82.0032,2.49,25.71,1111122 